When you browse on this site, cookies collect data to enhance your experience and personalize the content and advertising you see.
Visit our Privacy Policy to learn more. By continuing to use the site, you agree to this use of cookies and data.
  • In United Kingdom
  • List of Countries
  • For 7 days
  • Water Temperature
  • Weather Map
  • Weather Widgets
  • user-avatar
    Login

    Hourly Weather Mongu

    Today, 17 September, Tuesday

    Time Temperature Precipitation Wind Pressure Humidity
    00:00 +24°C° 0 mm 3 mps 675 mmHg 17%
    01:00 +24°C° 0 mm 3 mps 674 mmHg 17%
    02:00 +21°C° 0 mm 3 mps 674 mmHg 20%
    03:00 +20°C° 0 mm 3 mps 674 mmHg 23%
    04:00 +20°C° 0 mm 3 mps 674 mmHg 26%
    05:00 +20°C° 0 mm 3 mps 674 mmHg 29%
    06:00 +21°C° 0 mm 4 mps 675 mmHg 27%
    07:00 +23°C° 0 mm 5 mps 676 mmHg 25%
    08:00 +26°C° 0 mm 6 mps 677 mmHg 24%
    09:00 +28°C° 0 mm 6 mps 677 mmHg 19%
    10:00 +32°C° 0 mm 6 mps 677 mmHg 15%
    11:00 +35°C° 0 mm 6 mps 678 mmHg 11%
    12:00 +36°C° 0 mm 6 mps 677 mmHg 10%
    13:00 +37°C° 0 mm 5 mps 676 mmHg 9%
    14:00 +39°C° 0 mm 5 mps 675 mmHg 8%
    15:00 +39°C° 0 mm 5 mps 674 mmHg 8%
    16:00 +39°C° 0 mm 5 mps 674 mmHg 8%
    17:00 +39°C° 0 mm 5 mps 674 mmHg 9%
    18:00 +35°C° 0 mm 4 mps 673 mmHg 10%
    19:00 +32°C° 0 mm 4 mps 673 mmHg 12%
    20:00 +28°C° 0 mm 4 mps 673 mmHg 14%
    21:00 +27°C° 0 mm 4 mps 674 mmHg 15%
    22:00 +26°C° 0 mm 4 mps 674 mmHg 15%
    23:00 +26°C° 0 mm 4 mps 675 mmHg 16%

    Tomorrow, 18 September, Wednesday

    Time Temperature Precipitation Wind Pressure Humidity
    00:00 +25°C° 0 mm 4 mps 674 mmHg 18%
    01:00 +25°C° 0 mm 4 mps 674 mmHg 21%
    02:00 +23°C° 0 mm 4 mps 674 mmHg 23%
    03:00 +22°C° 0 mm 4 mps 674 mmHg 23%
    04:00 +22°C° 0 mm 4 mps 674 mmHg 24%
    05:00 +21°C° 0 mm 4 mps 674 mmHg 24%
    06:00 +22°C° 0 mm 4 mps 675 mmHg 23%
    07:00 +23°C° 0 mm 5 mps 675 mmHg 22%
    08:00 +24°C° 0 mm 6 mps 676 mmHg 21%
    09:00 +28°C° 0 mm 6 mps 676 mmHg 17%
    10:00 +33°C° 0 mm 6 mps 677 mmHg 13%
    11:00 +36°C° 0 mm 6 mps 677 mmHg 9%
    12:00 +38°C° 0 mm 6 mps 677 mmHg 9%
    13:00 +39°C° 0 mm 5 mps 676 mmHg 8%
    14:00 +40°C° 0 mm 5 mps 675 mmHg 7%
    15:00 +40°C° 0 mm 5 mps 674 mmHg 7%
    16:00 +39°C° 0 mm 5 mps 674 mmHg 7%
    17:00 +39°C° 0 mm 5 mps 673 mmHg 7%
    18:00 +35°C° 0 mm 4 mps 673 mmHg 10%
    19:00 +32°C° 0 mm 4 mps 673 mmHg 12%
    20:00 +27°C° 0 mm 3 mps 673 mmHg 14%
    21:00 +27°C° 0 mm 3 mps 674 mmHg 15%
    22:00 +26°C° 0 mm 3 mps 674 mmHg 16%
    23:00 +26°C° 0 mm 3 mps 674 mmHg 17%

    Day after tomorrow, 19 September, Thursday

    Time Temperature Precipitation Wind Pressure Humidity
    00:00 +25°C° 0 mm 3 mps 674 mmHg 19%
    01:00 +22°C° 0 mm 3 mps 673 mmHg 21%
    02:00 +21°C° 0 mm 3 mps 673 mmHg 23%
    03:00 +21°C° 0 mm 3 mps 673 mmHg 24%
    04:00 +20°C° 0 mm 3 mps 673 mmHg 25%
    05:00 +20°C° 0 mm 3 mps 674 mmHg 26%
    06:00 +21°C° 0 mm 3 mps 674 mmHg 22%
    07:00 +23°C° 0 mm 4 mps 675 mmHg 19%
    08:00 +26°C° 0 mm 5 mps 676 mmHg 16%
    09:00 +29°C° 0 mm 5 mps 676 mmHg 14%
    10:00 +33°C° 0 mm 5 mps 677 mmHg 12%
    11:00 +36°C° 0 mm 5 mps 677 mmHg 10%
    12:00 +37°C° 0 mm 4 mps 676 mmHg 9%
    13:00 +38°C° 0 mm 4 mps 676 mmHg 8%
    14:00 +39°C° 0 mm 3 mps 675 mmHg 7%
    15:00 +39°C° 0 mm 3 mps 674 mmHg 6%
    16:00 +39°C° 0 mm 3 mps 674 mmHg 6%
    17:00 +38°C° 0 mm 3 mps 673 mmHg 6%
    18:00 +35°C° 0 mm 3 mps 673 mmHg 7%
    19:00 +30°C° 0 mm 3 mps 673 mmHg 9%
    20:00 +27°C° 0 mm 3 mps 673 mmHg 10%
    21:00 +26°C° 0 mm 3 mps 673 mmHg 12%
    22:00 +25°C° 0 mm 3 mps 673 mmHg 13%
    23:00 +24°C° 0 mm 3 mps 673 mmHg 15%

    20 September, Friday

    Time Temperature Precipitation Wind Pressure Humidity
    00:00 +24°C° 0 mm 3 mps 673 mmHg 16%
    01:00 +23°C° 0 mm 4 mps 673 mmHg 18%
    02:00 +23°C° 0 mm 4 mps 673 mmHg 20%
    03:00 +22°C° 0 mm 4 mps 673 mmHg 22%
    04:00 +21°C° 0 mm 3 mps 673 mmHg 24%
    05:00 +20°C° 0 mm 3 mps 673 mmHg 26%
    06:00 +22°C° 0 mm 4 mps 674 mmHg 24%
    07:00 +23°C° 0 mm 5 mps 675 mmHg 22%
    08:00 +26°C° 0 mm 5 mps 676 mmHg 20%
    09:00 +29°C° 0 mm 5 mps 676 mmHg 18%
    10:00 +33°C° 0 mm 5 mps 676 mmHg 16%
    11:00 +36°C° 0 mm 5 mps 677 mmHg 13%
    12:00 +37°C° 0 mm 4 mps 676 mmHg 12%
    13:00 +39°C° 0 mm 3 mps 675 mmHg 10%
    14:00 +41°C° 0 mm 2 mps 675 mmHg 8%
    15:00 +40°C° 0 mm 2 mps 674 mmHg 8%
    16:00 +39°C° 0 mm 2 mps 674 mmHg 8%
    17:00 +39°C° 0 mm 2 mps 673 mmHg 8%
    18:00 +35°C° 0 mm 2 mps 673 mmHg 10%
    19:00 +31°C° 0 mm 2 mps 672 mmHg 12%
    20:00 +27°C° 0 mm 2 mps 672 mmHg 14%
    21:00 +26°C° 0 mm 2 mps 672 mmHg 15%
    22:00 +25°C° 0 mm 2 mps 672 mmHg 16%
    23:00 +24°C° 0 mm 2 mps 672 mmHg 17%

    21 September, Saturday

    Time Temperature Precipitation Wind Pressure Humidity
    00:00 +22°C° 0 mm 3 mps 672 mmHg 20%
    01:00 +22°C° 0 mm 3 mps 672 mmHg 22%
    02:00 +21°C° 0 mm 3 mps 672 mmHg 24%
    03:00 +21°C° 0 mm 3 mps 672 mmHg 29%
    04:00 +20°C° 0 mm 3 mps 672 mmHg 34%
    05:00 +20°C° 0 mm 3 mps 672 mmHg 39%
    06:00 +21°C° 0 mm 4 mps 673 mmHg 36%
    07:00 +23°C° 0 mm 5 mps 674 mmHg 33%
    08:00 +26°C° 0 mm 6 mps 675 mmHg 29%
    09:00 +29°C° 0 mm 5 mps 675 mmHg 25%
    10:00 +33°C° 0 mm 5 mps 675 mmHg 21%
    11:00 +37°C° 0 mm 4 mps 675 mmHg 16%
    12:00 +39°C° 0 mm 3 mps 675 mmHg 14%
    13:00 +41°C° 0 mm 2 mps 674 mmHg 11%
    14:00 +43°C° 0 mm 1 mps 674 mmHg 9%
    15:00 +42°C° 0 mm 1 mps 673 mmHg 9%
    16:00 +40°C° 0 mm 1 mps 672 mmHg 9%
    17:00 +39°C° 0 mm 1 mps 672 mmHg 10%
    18:00 +35°C° 0 mm 1 mps 671 mmHg 12%
    19:00 +30°C° 0 mm 0 mps 671 mmHg 15%
    20:00 +26°C° 0 mm 0 mps 671 mmHg 18%
    21:00 +28°C° 0 mm 1 mps 671 mmHg 18%
    22:00 +27°C° 0 mm 1 mps 671 mmHg 19%
    23:00 +26°C° 0 mm 1 mps 671 mmHg 20%

    22 September, Sunday

    Time Temperature Precipitation Wind Pressure Humidity
    00:00 +25°C° 0 mm 1 mps 671 mmHg 22%
    01:00 +24°C° 0 mm 2 mps 671 mmHg 23%
    02:00 +23°C° 0 mm 2 mps 671 mmHg 24%
    03:00 +21°C° 0 mm 2 mps 671 mmHg 26%
    04:00 +20°C° 0 mm 2 mps 671 mmHg 28%
    05:00 +20°C° 0 mm 2 mps 671 mmHg 30%
    06:00 +22°C° 0 mm 3 mps 672 mmHg 27%
    07:00 +25°C° 0 mm 4 mps 673 mmHg 25%
    08:00 +27°C° 0 mm 5 mps 673 mmHg 22%
    09:00 +30°C° 0 mm 6 mps 674 mmHg 19%
    10:00 +34°C° 0 mm 6 mps 674 mmHg 16%
    11:00 +39°C° 0 mm 6 mps 674 mmHg 13%
    12:00 +40°C° 0 mm 5 mps 674 mmHg 11%
    13:00 +42°C° 0 mm 3 mps 673 mmHg 10%
    14:00 +42°C° 0 mm 2 mps 673 mmHg 9%
    15:00 +41°C° 0 mm 2 mps 672 mmHg 9%
    16:00 +41°C° 0 mm 2 mps 672 mmHg 10%
    17:00 +40°C° 0 mm 2 mps 671 mmHg 11%
    18:00 +36°C° 0 mm 2 mps 671 mmHg 15%
    19:00 +32°C° 0 mm 1 mps 671 mmHg 20%
    20:00 +28°C° 0 mm 1 mps 671 mmHg 25%
    21:00 +27°C° 0 mm 1 mps 671 mmHg 27%
    22:00 +27°C° 0 mm 1 mps 671 mmHg 28%
    23:00 +24°C° 0 mm 0 mps 671 mmHg 30%
    Show more